Location: Hannover
(52.3723°N, 9.7339°E)
Time: 14:47:11
(UTC+02:00)

ISS - Pass Details

Date: 21 March 2017
Orbit: 399 x 409 km, 51.6° (Epoch: 30 March)

Event Time Altitude Azimuth Distance (km) Brightness Sun altitude
Exits shadow 04:36:20 29° 193° (SSW) 793 -2.7 -16.4°
Drops below altitude 10° 04:38:51 10° 146° (SE) 1,473 -0.9 -16.1°
Sets 04:41:04 0° 135° (SE) 2,332 0.3 -15.7°
